(129752) = 1999 CX146

Discovered at Kitt Peak on 1999-02-09 by Spacewatch.

Orbit

Orbit type: Main Belt

Note: WebGL enabled browser required.

epoch2023-09-13.0
epoch JD2460200.5
perihelion date2020-09-01.36657
perihelion JD2459093.86657
argument of perihelion (°)94.53952
ascending node (°)270.77541
inclination (°)0.58646
eccentricity0.0410486
perihelion distance (AU)2.1145395
Tisserand w.r.t. Jupiter3.7
ΔV w.r.t. Earth (km/sec)8.9
semimajor axis (AU)2.2050539
mean anomaly (°)333.10321
mean daily motion (°/day)0.30100590
aphelion distance (AU)2.296
period (years)3.27
P-vector [x]0.99564837
P-vector [y]0.08092718
P-vector [z]0.04620731
Q-vector [x]-0.09262600
Q-vector [y]0.91385972
Q-vector [z]0.39532371
absolute magnitude17.34
phase slope0.15
uncertainty0
referenceMPEC 2023-Y111
observations used511
oppositions16
arc length (days)9091
first opposition used1999
last opposition used2023
residual rms (arc-secs)0.79
perturbers coarse indicatorM-v
perturbers precise indicator003Ek
first observation date used1999-02-08.0
last observation date used2023-12-30.0
computer nameMPCLINUX
JD of orbit computation2456966.860584
perihelion JD uncertainty (days)1.2835E-04
argument of perihelion uncertainty (°)3.9618E-04
ascending node uncertainty (°)3.9424E-04
inclination uncertainty (°)3.0255E-06
eccentricity uncertainty 3.7745E-08
perihelion distance uncertainty (AU)8.6321E-08
Minimum Orbit Intersection Distances (in AU)
for orbit epoch: 2460200.5, reference: E2023-YB1
Mercury1.72614
Venus1.39072
Earth1.11094
Mars0.60901
Jupiter2.83684
Saturn6.85081
Uranus16.1566
Neptune27.7163

Observations

510 total observations over interval: 1999 02 08.45815 – 2023 12 30.234100
These data are available for download (format description).

Date (UT) J2000 RA J2000 Dec Magn Location Ref
1999 02 08.45815 11 22 59.66 +03 01 29.9 20.5 V 691 – Steward Observatory, Kitt Peak-Spacewatch MPS 4507
1999 02 08.47902 11 22 58.84 +03 01 34.5 20.6 V 691 – Steward Observatory, Kitt Peak-Spacewatch MPS 4507
1999 02 08.50094 11 22 57.97 +03 01 39.3 20.7 V 691 – Steward Observatory, Kitt Peak-Spacewatch MPS 4507
1999 02 09.37363 11 22 25.07 +03 04 50.7 20.5 V 691 – Steward Observatory, Kitt Peak-Spacewatch MPS 4203
1999 02 09.39520 11 22 24.22 +03 04 55.5 20.6 V 691 – Steward Observatory, Kitt Peak-Spacewatch MPS 4203
1999 02 09.41616 11 22 23.34 +03 05 00.2 20.6 V 691 – Steward Observatory, Kitt Peak-Spacewatch MPS 4203
1999 02 14.40603 11 18 50.10 +03 25 48.9 20.6 V 691 – Steward Observatory, Kitt Peak-Spacewatch MPS 4203
1999 02 14.42734 11 18 49.07 +03 25 54.9 20.6 V 691 – Steward Observatory, Kitt Peak-Spacewatch MPS 4203
1999 02 14.44842 11 18 48.04 +03 26 00.0 20.4 V 691 – Steward Observatory, Kitt Peak-Spacewatch MPS 4203
1999 03 13.26449 10 53 14.81 +06 01 19.4 20.2 V 691 – Steward Observatory, Kitt Peak-Spacewatch MPS 54341
1999 03 13.28588 10 53 13.50 +06 01 28.3 20.5 V 691 – Steward Observatory, Kitt Peak-Spacewatch MPS 54341
1999 03 13.30701 10 53 12.21 +06 01 35.4 20.3 V 691 – Steward Observatory, Kitt Peak-Spacewatch MPS 54341
2002 01 13.32613 08 41 19.35 +17 45 20.2 20.0   704 – Lincoln Laboratory ETS, New Mexico MPS 54341
2002 01 13.34129 08 41 18.33 +17 45 23.4 20.1   704 – Lincoln Laboratory ETS, New Mexico MPS 54341
2002 01 13.35646 08 41 17.29 +17 45 25.3 20.5   704 – Lincoln Laboratory ETS, New Mexico MPS 54341
2002 01 13.37163 08 41 16.35 +17 45 29.6 20.1   704 – Lincoln Laboratory ETS, New Mexico MPS 54341
2002 01 23.25882 08 30 26.54 +18 22 13.6 20.4   704 – Lincoln Laboratory ETS, New Mexico MPS 54341
2002 01 23.27358 08 30 25.60 +18 22 16.7 19.8   704 – Lincoln Laboratory ETS, New Mexico MPS 54341
2002 01 23.28834 08 30 24.52 +18 22 19.1 20.3   704 – Lincoln Laboratory ETS, New Mexico MPS 54341
2002 02 11.24247 08 10 08.70 +19 26 05.5 20.6 V 691 – Steward Observatory, Kitt Peak-Spacewatch MPS 54341
2002 02 11.26470 08 10 07.41 +19 26 09.1 21.0 V 691 – Steward Observatory, Kitt Peak-Spacewatch MPS 54341
2002 02 11.28706 08 10 06.12 +19 26 12.9 21.2 V 691 – Steward Observatory, Kitt Peak-Spacewatch MPS 54341
2004 11 11.29042 05 58 41.66 +23 45 05.6 20.8 V 291 – LPL/Spacewatch II MPS 120312
2004 11 11.29467 05 58 41.54 +23 45 05.6 21.2 V 291 – LPL/Spacewatch II MPS 120312
2004 11 11.30176 05 58 41.32 +23 45 05.2 21.4 V 291 – LPL/Spacewatch II MPS 120312
2004 12 14.20105 05 28 13.11 +23 24 03.0 19.8 V 691 – Steward Observatory, Kitt Peak-Spacewatch MPS 121542
2004 12 14.22669 05 28 11.21 +23 24 01.5 19.9 V 691 – Steward Observatory, Kitt Peak-Spacewatch MPS 121542
2004 12 14.25199 05 28 09.31 +23 23 59.7 19.9 V 691 – Steward Observatory, Kitt Peak-Spacewatch MPS 121542
2004 12 16.25911 05 25 44.73 +23 21 24.3 19.6   704 – Lincoln Laboratory ETS, New Mexico MPS 121542
2004 12 16.27591 05 25 43.43 +23 21 22.6 20.0   704 – Lincoln Laboratory ETS, New Mexico MPS 121542
2004 12 16.29078 05 25 42.34 +23 21 21.8 20.2   704 – Lincoln Laboratory ETS, New Mexico MPS 121542
2004 12 16.31909 05 25 40.16 +23 21 18.4 19.9   704 – Lincoln Laboratory ETS, New Mexico MPS 121542
2006 04 24.31591 15 18 06.51 -19 02 01.8 20.6 V G96 – Mt. Lemmon Survey MPS 169790
2006 04 24.32088 15 18 06.19 -19 02 01.3 20.6 V G96 – Mt. Lemmon Survey MPS 169790
2006 04 24.32593 15 18 05.90 -19 02 00.3 20.3 V G96 – Mt. Lemmon Survey MPS 169790
2006 04 24.33088 15 18 05.65 -19 01 58.9 20.2 V G96 – Mt. Lemmon Survey MPS 169790
2006 04 26.28981 15 16 17.36 -18 54 56.6 20.2 V 691 – Steward Observatory, Kitt Peak-Spacewatch MPS 169790
2006 04 26.30710 15 16 16.34 -18 54 52.7 20.2 V 691 – Steward Observatory, Kitt Peak-Spacewatch MPS 169790
2006 04 26.32437 15 16 15.35 -18 54 49.1 20.4 V 691 – Steward Observatory, Kitt Peak-Spacewatch MPS 169790
2006 04 30.26061 15 12 25.49 -18 39 32.9 20.2 V 691 – Steward Observatory, Kitt Peak-Spacewatch MPS 170722
2006 04 30.27793 15 12 24.40 -18 39 28.8 20.2 V 691 – Steward Observatory, Kitt Peak-Spacewatch MPS 170722
2006 04 30.29527 15 12 23.32 -18 39 24.8 20.2 V 691 – Steward Observatory, Kitt Peak-Spacewatch MPS 170722
2006 05 04.23530 15 08 21.29 -18 22 50.3 20.3 V 691 – Steward Observatory, Kitt Peak-Spacewatch MPS 170722
2006 05 04.25265 15 08 20.15 -18 22 45.3 20.7 V 691 – Steward Observatory, Kitt Peak-Spacewatch MPS 170722
2006 05 04.27000 15 08 19.01 -18 22 41.2 20.6 V 691 – Steward Observatory, Kitt Peak-Spacewatch MPS 170722
2006 05 04.29697 15 08 17.27 -18 22 33.8 20.4 V 691 – Steward Observatory, Kitt Peak-Spacewatch MPS 170722
2006 05 04.31437 15 08 16.15 -18 22 29.8 20.3 V 691 – Steward Observatory, Kitt Peak-Spacewatch MPS 170722
2006 05 04.33175 15 08 15.00 -18 22 25.0 20.4 V 691 – Steward Observatory, Kitt Peak-Spacewatch MPS 170722
2006 06 02.24661 14 40 48.64 -16 15 24.6 20.7 V G96 – Mt. Lemmon Survey MPS 172695
2006 06 02.25170 14 40 48.43 -16 15 23.4 20.2 V G96 – Mt. Lemmon Survey MPS 172695
2006 06 02.26340 14 40 47.92 -16 15 21.4 20.3 V G96 – Mt. Lemmon Survey MPS 172695
2006 06 02.26848 14 40 47.71 -16 15 20.3 20.1 V G96 – Mt. Lemmon Survey MPS 172695
2006 06 02.30265 14 40 46.23 -16 15 12.8 20.1 V G96 – Mt. Lemmon Survey MPS 172695
2006 06 02.30652 14 40 46.02 -16 15 11.9 20.1 V G96 – Mt. Lemmon Survey MPS 172696
2006 06 02.31021 14 40 45.94 -16 15 11.4 20.5 V G96 – Mt. Lemmon Survey MPS 172696
2006 06 02.31396 14 40 45.76 -16 15 10.1 20.1 V G96 – Mt. Lemmon Survey MPS 172696
2007 10 09.27222 02 34 50.99 +16 08 55.6 19.9 V 691 – Steward Observatory, Kitt Peak-Spacewatch MPS 219975
2007 10 09.28985 02 34 50.13 +16 08 52.1 20.2 V 691 – Steward Observatory, Kitt Peak-Spacewatch MPS 219975
2007 10 09.30749 02 34 49.28 +16 08 48.6 20.3 V 691 – Steward Observatory, Kitt Peak-Spacewatch MPS 219975
2007 10 13.26838 02 31 38.93 +15 53 53.1 19.6 V 691 – Steward Observatory, Kitt Peak-Spacewatch MPS 222180
2007 10 13.28604 02 31 37.97 +15 53 49.0 19.8 V 691 – Steward Observatory, Kitt Peak-Spacewatch MPS 222180
2007 10 13.30114 02 31 37.18 +15 53 44.9 19.5 V 691 – Steward Observatory, Kitt Peak-Spacewatch MPS 222180
2007 10 14.25990 02 30 47.63 +15 49 47.9 19.7   704 – Lincoln Laboratory ETS, New Mexico MPS 222180
2007 10 14.27099 02 30 47.01 +15 49 44.7 20.0   704 – Lincoln Laboratory ETS, New Mexico MPS 222180
2007 10 14.29323 02 30 45.76 +15 49 39.4 20.4   704 – Lincoln Laboratory ETS, New Mexico MPS 222180
2007 10 14.30435 02 30 45.17 +15 49 36.2 19.5   704 – Lincoln Laboratory ETS, New Mexico MPS 222180
2007 10 20.29944 02 25 09.76 +15 22 14.9 19.2 V 703 – Catalina Sky Survey MPS 223230
2007 10 20.30758 02 25 09.19 +15 22 12.6 19.1 V 703 – Catalina Sky Survey MPS 223230
2007 10 20.31571 02 25 08.68 +15 22 09.8 19.1 V 703 – Catalina Sky Survey MPS 223230
2007 10 20.32383 02 25 08.22 +15 22 07.8 19.2 V 703 – Catalina Sky Survey MPS 223230
2007 10 30.34450 02 14 51.93 +14 29 07.0 19.4 V 703 – Catalina Sky Survey MPS 224448
2007 10 30.35452 02 14 51.18 +14 29 04.5 19.1 V 703 – Catalina Sky Survey MPS 224448
2007 10 30.36458 02 14 50.53 +14 28 59.7 19.2 V 703 – Catalina Sky Survey MPS 224448
2007 10 30.37459 02 14 49.88 +14 28 57.5 18.9 V 703 – Catalina Sky Survey MPS 224448
2007 10 31.23405 02 13 56.64 +14 24 09.9 19.6 V G96 – Mt. Lemmon Survey MPS 224448
2007 10 31.24076 02 13 56.24 +14 24 07.7 19.7 V G96 – Mt. Lemmon Survey MPS 224448
2007 10 31.24741 02 13 55.81 +14 24 05.4 19.6 V G96 – Mt. Lemmon Survey MPS 224448
2007 10 31.25409 02 13 55.34 +14 24 03.2 19.5 V G96 – Mt. Lemmon Survey MPS 224448
2007 11 04.26516 02 09 47.88 +14 01 39.6 19.5 V G96 – Mt. Lemmon Survey MPS 226428
2007 11 04.27008 02 09 47.55 +14 01 38.0 19.6 V G96 – Mt. Lemmon Survey MPS 226428
2007 11 04.27505 02 09 47.23 +14 01 36.3 19.6 V G96 – Mt. Lemmon Survey MPS 226428
2007 11 04.28453 02 09 46.62 +14 01 33.3 19.7 V G96 – Mt. Lemmon Survey MPS 226428
2007 11 07.25263 02 06 49.53 +13 45 08.8 19.3 V G96 – Mt. Lemmon Survey MPS 226428
2007 11 07.25822 02 06 49.06 +13 45 06.6 19.9 V G96 – Mt. Lemmon Survey MPS 226428
2007 11 07.26378 02 06 48.74 +13 45 04.9 20.0 V G96 – Mt. Lemmon Survey MPS 226428
